Content
SEND FEEDBACK

Daily
Averages
Monthly
Summary
Canada

QUEBEC CITY, QUEBEC


Home > North America > Canada > Quebec
Elevation: 239 feet     Latitude: 46 48N     Longitude: 071 23W

WEATHER
 
SELECT A DAY
Number of Records: 195,749;   Date Range: 6/30/96 - 10/19/14
 
SHARE

PRINT THIS DATA

[ ← Previous Day ]
WEATHER ALMANAC - AUGUST 14, 2013
[ Next Day → ]
[ °C ]   °F
Weather ElementAverageHighLow
Temperature57.5 °F64.4 °F (3:00 pm)53.6 °F (9:00 pm)
Dewpoint39.3 °F56 °F (11:00 am) (7:00 pm)
Humidity85.7 %100 % (10:00 am)61 % (5:00 pm)
Wind Speed8.5 mph17.3 mph (1:00 pm)
Wind Gust23 mph (4:00 pm)
Weather ElementAverage
Visibility13.6 mi
Wind DirectionSSW (213.3 °)

Weather ElementTotal
Precipitation---
Heating Degree Days6 (Base 65)
Growing Degree Days9 (Base 50)
Averaged from 42 records on August 14, 2013
WEATHER CONDITIONS BREAKOUT
WIND DIRECTION BREAKOUT
WEATHER BY HOUR - AUGUST 14, 2013
[ °C ]   °F
Local TimeTemperatureDewpointHumidityBarometerVisibilityWind DirectionWind SpeedGust SpeedPrecipitationEventsConditions
1:00 AM55.4 °F53.6 °F94 %29.70 in6.0 miNE (40°)10.4 mphRainRain
2:00 AM55.0 °F54.0 °F94 %29.63 inENE (70°)5.8 mph
2:00 AM55.4 °F53.6 °F94 %29.65 in10.0 miNE (50°)11.5 mphRainRain
2:24 AM55.4 °F0.0 °F10.0 miNE (50°)6.9 mphRainLight Rain
2:51 AM55.4 °F0.0 °F10.0 miNorth (350°)3.5 mphRainLight Rain
3:00 AM55.4 °F53.6 °F94 %29.66 in6.0 miNNE (20°)5.8 mphRainLight Rain
4:00 AM55.4 °F53.6 °F94 %29.66 in10.0 miSouth (180°)4.6 mphRainLight Rain
5:00 AM55.0 °F54.0 °F95 %29.64 inSE (140°)3.5 mph
5:00 AM55.4 °F53.6 °F94 %29.66 in10.0 miSE (130°)3.5 mphRainLight Rain
6:00 AM55.4 °F53.6 °F94 %29.67 in10.0 miSouth (180°)5.8 mphOvercast
7:00 AM55.4 °F53.6 °F94 %29.68 in10.0 miSSW (200°)5.8 mphOvercast
8:00 AM55.4 °F53.6 °F94 %29.68 in3.0 miSouth (170°)5.8 mphOvercast
8:00 AM55.0 °F54.0 °F95 %29.65 inSouth (180°)5.8 mph
8:11 AM55.4 °F0.0 °F1.8 miSouth (170°)6.9 mphRainLight Rain
8:27 AM55.4 °F0.0 °F2.5 miSouth (190°)5.8 mphRainLight Rain
9:00 AM55.4 °F53.6 °F94 %29.68 in2.5 miSSW (200°)5.8 mphLight Drizzle
9:46 AM55.4 °F0.0 °F3.0 miSSW (200°)5.8 mphLight Drizzle
10:00 AM55.4 °F55.4 °F100 %29.68 in3.0 miWSW (240°)8.1 mphLight Drizzle
10:09 AM57.2 °F0.0 °F2.0 miSW (230°)5.8 mphLight Drizzle
10:16 AM57.2 °F0.0 °F3.0 miSW (230°)5.8 mphLight Drizzle
10:45 AM57.2 °F0.0 °F6.0 miSSW (210°)6.9 mphOvercast
11:00 AM59.0 °F55.4 °F88 %29.66 in10.0 miSW (230°)12.7 mphOvercast
11:00 AM58.0 °F56.0 °F92 %29.63 inSW (230°)4.6 mph
11:48 AM60.8 °F0.0 °F10.0 miWSW (240°)13.8 mphOvercast
12:00 PM60.8 °F55.4 °F82 %29.66 in10.0 miWSW (240°)13.8 mphRainLight Rain Showers
1:00 PM60.8 °F55.4 °F82 %29.66 in20.0 miWest (260°)17.3 mphMostly Cloudy
1:27 PM62.6 °F0.0 °F20.0 miWSW (250°)13.8 mphMostly Cloudy
2:00 PM62.6 °F53.6 °F72 %29.65 in30.0 miWest (270°)13.8 mphMostly Cloudy
2:00 PM63.0 °F56.0 °F70 %29.63 inWest (260°)11.5 mph
3:00 PM64.4 °F53.6 °F68 %29.65 in30.0 miWNW (290°)11.5 mphMostly Cloudy
4:00 PM62.6 °F51.8 °F68 %29.66 in30.0 miNW (310°)13.8 mph23.0 mphMostly Cloudy
4:29 PM60.8 °F0.0 °F30.0 miNW (310°)13.8 mph23.0 mphRainLight Rain Showers
5:00 PM60.8 °F50.0 °F68 %29.70 in30.0 miWNW (300°)13.8 mph21.9 mphMostly Cloudy
5:00 PM61.0 °F51.0 °F61 %29.68 inWNW (300°)11.5 mph
6:00 PM59.0 °F51.8 °F77 %29.73 in30.0 miWest (270°)8.1 mphMostly Cloudy
7:00 PM59.0 °F51.8 °F77 %29.78 in30.0 miSW (230°)8.1 mphMostly Cloudy
8:00 PM57.0 °F53.0 °F80 %29.78 inWSW (240°)5.8 mph
8:00 PM57.2 °F51.8 °F82 %29.80 in30.0 miWSW (250°)11.5 mphScattered Clouds
9:00 PM53.6 °F50.0 °F88 %29.82 in15.0 miWest (260°)6.9 mphScattered Clouds
10:00 PM53.6 °F51.8 °F94 %29.83 in15.0 miWest (260°)3.5 mphPartly Cloudy
11:00 PM54.0 °F52.0 °F89 %29.81 inWest (270°)5.8 mph
11:00 PM55.4 °F51.8 °F88 %29.83 in15.0 miWest (260°)11.5 mphPartly Cloudy
Hourly data recorded from CYQB, located miles away from Quebec City, Quebec







STORIES FROM OUR PARTNERS